User: anonymous   Login
Location: Ashtead
(51.3000°N, 0.3000°W)
Time: 05:30:18
(UTC+00:00)
Language:

Cosmos 494 Rocket - Orbit

View from above orbital plane
View from above orbital plane
View from above satellite
View from above satellite

Ground track
Ground track

The orbit data is extracted from the following two-line orbital elements,

1 06061U 72043B   24060.46208905  .00000377  00000-0  12456-3 0  9993
2 06061  74.0584 337.1853 0020624 215.4773 144.5013 14.41205930710607
Epoch (UTC): 29 February 2024 11:05:24
Eccentricity: 0.0020624
inclination: 74.0584°
perigee height: 740 km
apogee height: 769 km
right ascension of ascending node: 337.1853°
argument of perigee: 215.4773°
revolutions per day: 14.41205930
mean anomaly at epoch: 144.5013°
orbit number at epoch: 71060

The dashed part of the orbit path shows where the satellite is in the earth's shadow,  

DLR